User: anonymous   Login
Location: Unspecified
(0.0000°N, 0.0000°E)
Time: 18:46:09
(UTC+00:00)
Language:

S-NET A - Orbit

View from above orbital plane
View from above orbital plane
View from above satellite
View from above satellite

Ground track
Ground track

The orbit data is extracted from the following two-line orbital elements,

1 43188U 18014J   23274.19031072  .00006658  00000-0  52062-3 0  9992
2 43188  97.6122 175.9597 0014141 164.6278 195.5378 15.01319446309454
Epoch (UTC): 01 October 2023 04:34:02
Eccentricity: 0.0014141
inclination: 97.6122°
perigee height: 553 km
apogee height: 572 km
right ascension of ascending node: 175.9597°
argument of perigee: 164.6278°
revolutions per day: 15.01319446
mean anomaly at epoch: 195.5378°
orbit number at epoch: 30945

The dashed part of the orbit path shows where the satellite is in the earth's shadow,  

DLR